Weather Roundup
Issued by NWS

Home | Current Version | Previous Version | Text Only | Print | Product List | Glossary On
Versions: 1 2 3 4 5 6 7 8 9 10 11 12 13 14 15 16 17 18 19 20 21 22 23 24 25 26 27 28 29 30 31 32 33 34 35 36 37 38 39 40 41 42 43 44 45 46 47 48 49 50
000
NZUS93 KARX 220710
HRRWXR

CURRENT HOURLY OBSERVATIONS ACROSS
MUCH OF THE UPPER MISSISSIPPI VALLEY
NATIONAL WEATHER SERVICE LA CROSSE WI
200 AM CDT TUE JUL 22 2014


...SOUTHEAST MINNESOTA...


CITY           SKY/WX    TMP DP  RH WIND       PRES   REMARKS
ROCHESTER      LGT RAIN  77  72  84 S15G24    29.89F
ROCHESTER/MAYO FAIR      78  70  77 SE10G21   29.88S
WINONA         CLOUDY    79  70  73 S5        29.89S
AUSTIN         CLOUDY    79  73  83 S13       29.87S
ALBERT LEA     MOCLDY    81  75  83 S9G17     29.86S
DODGE CENTER   CLOUDY    79  73  83 S17       29.86F
PRESTON        CLOUDY    76  74  95 S13G22    29.92S
OWATONNA       MOCLDY    81  73  78 S10       29.84S
FARIBAULT      MOCLDY    82  73  74 S9        29.83S
$$

...ELSEWHERE IN MINNESOTA...


CITY           SKY/WX    TMP DP  RH WIND       PRES   REMARKS
MINNEAPOLIS    MOCLDY    82  76  81 S15G21    29.79F
INTNL FALLS    LGT RAIN  68  66  93 NE8       29.63F
DULUTH         TSTM      68  64  87 SW8       29.82F
RED WING       CLOUDY    81  72  74 SE7       29.83S
REDWOOD FALLS  PTCLDY    79  76  90 W7        29.81R
MANKATO        PTCLDY    81  73  78 S15       29.82S
WORTHINGTON    CLEAR     79  75  89 SW8       29.87S
FAIRMONT       CLEAR     79  73  83 S8        29.84S
$$

...SOUTHWEST WISCONSIN...


CITY           SKY/WX    TMP DP  RH WIND       PRES   REMARKS
LA CROSSE      CLOUDY    80  69  69 S12       29.90F
PRAIRIE DU CHI PTCLDY    78  66  67 SE6       29.94F
BOSCOBEL       CLOUDY    78  68  71 VRB7      29.96F
LONE ROCK      CLEAR     79  69  71 S6        29.97F
PLATTEVILLE    CLEAR     73  69  87 S10       30.01F
FORT MC COY    CLOUDY    77  66  69 S15       29.93F
CAMP DOUGLAS   MOCLDY    76  71  84 S8        29.95F
VIROQUA        PTSUNNY   75  68  78 S7        29.96F
WIS DELLS      CLEAR     74  66  77 S9        29.98F
$$

...ELSEWHERE IN WISCONSIN...


CITY           SKY/WX    TMP DP  RH WIND       PRES   REMARKS
MILWAUKEE      PTCLDY    73  65  75 S9        30.02F
MADISON        PTCLDY    75  68  78 S9        30.01S
GREEN BAY      CLEAR     71  65  81 S8        29.97F
EAU CLAIRE     CLOUDY    79  70  74 S14       29.85F
BLACK RVR FLS  FAIR      78  67  70 S6        29.92S
MEDFORD        MOCLDY    73  67  82 S14       29.93F
WAUSAU         MOCLDY    74  68  81 S10       29.93F
WIS RAPIDS     PTCLDY    74  68  81 S9        29.96F
MARSHFIELD     MOCLDY    73  68  84 S9        29.95F
RICE LAKE      CLOUDY    76  69  78 S10       29.86S
$$

...NORTHEAST IOWA...


CITY           SKY/WX    TMP DP  RH WIND       PRES   REMARKS
WATERLOO       PTCLDY    78  71  79 S14       29.91F
DUBUQUE        CLEAR     72  69  90 S12       30.00S
DECORAH        CLOUDY    75  70  83 S10G18    29.93S
MASON CITY     CLOUDY    79  76  90 S14       29.89F
CHARLES CITY   CLOUDY    79  73  83 S16       29.91F
OELWEIN        CLOUDY    75  70  83 S14       29.96S
$$

...ELSEWHERE IN IOWA...


CITY           SKY/WX    TMP DP  RH WIND       PRES   REMARKS
DES MOINES     PTCLDY    82  74  76 S12       29.91F
IOWA CITY      CLEAR     75  69  81 SE9       29.99F
FORT DODGE     CLOUDY    81  73  78 S17       29.88S
MARSHALLTOWN   PTCLDY    78  74  87 S14       29.91F
CEDAR RAPIDS   CLEAR     75  68  78 S10       29.97S
$$

...NORTHERN ILLINOIS...


CITY           SKY/WX    TMP DP  RH WIND       PRES   REMARKS
CHICAGO-OHARE  CLEAR     72  63  73 SW5       30.05S
DUPAGE         CLEAR     69  65  86 S7        30.06R
CHICAGO-MIDWAY CLEAR     75  65  70 S5        30.05F
MOLINE         CLEAR     75  67  76 S12       30.01F
ROCKFORD       PTCLDY    71  66  84 S7        30.05S
STERLING       CLEAR     72  66  83 S3        30.04F
PEORIA         CLEAR     72  65  78 S8        30.06S
$$

NOTE: "FAIR" INDICATES FEW OR NO CLOUDS BELOW 12,000 FEET WITH NO
SIGNIFICANT WEATHER AND/OR OBSTRUCTIONS TO VISIBILITY. WIND
SPEEDS ARE IN MILES-PER-HOUR.



USA.gov is the U.S. government's official web portal to all federal, state and local government web resources and services.